Location: Brantley
(31.5822°N, 86.2569°W)
Time: 07:04:25
(UTC+00:00)

Transit 4A - All Passes

Search period start: 18 February 2026 00:00
Search period end: 28 February 2026 00:00
Orbit: 865 x 976 km, 66.8° (Epoch: 17 February)

Date Brightness Start Highest point End Pass type
(mag) Time Alt. Az. Time Alt. Az. Time Alt. Az.
18 Feb - 07:20:52 10° ESE 07:22:31 11° ESE 07:24:10 10° E night (unlit)
18 Feb - 09:02:12 10° SSW 09:07:59 76° WNW 09:13:57 10° NNE visible
18 Feb - 10:54:42 10° NW 10:55:17 10° NW 10:55:52 10° NW visible
18 Feb - 18:09:45 10° NNW 18:15:48 47° ENE 18:21:55 10° SE daylight
18 Feb - 19:56:56 10° NW 20:01:45 23° WSW 20:06:36 10° SSW daylight
19 Feb - 07:27:00 10° SSE 07:30:59 19° ESE 07:35:00 10° ENE night (unlit)
19 Feb - 09:11:11 10° SW 09:16:47 48° WNW 09:22:32 10° NNE visible
19 Feb - 16:35:56 10° NE 16:37:17 11° NE 16:38:37 10° ENE daylight
19 Feb - 18:18:19 10° NNW 18:24:37 72° ENE 18:30:59 10° SSE daylight
19 Feb - 20:07:03 10° WNW 20:10:16 14° WSW 20:13:29 10° SW daylight
20 Feb - 07:34:30 10° SSE 07:39:30 31° ESE 07:44:36 10° NE night (unlit)
20 Feb - 09:20:31 10° WSW 09:25:39 32° WNW 09:30:56 10° N visible
20 Feb - 16:42:39 10° NNE 16:46:26 16° NE 16:50:15 10° E daylight
20 Feb - 18:27:03 10° NNW 18:33:21 77° WSW 18:39:44 10° SSE daylight
21 Feb - 07:42:32 10° S 07:48:06 49° ESE 07:53:46 10° NE visible
21 Feb - 09:30:16 10° WSW 09:34:38 21° NW 09:39:05 10° N visible
21 Feb - 16:50:31 10° N 16:55:30 24° NE 17:00:31 10° ESE daylight
21 Feb - 18:35:58 10° NW 18:42:02 50° WSW 18:48:09 10° S daylight
22 Feb - 07:50:57 10° SSW 07:56:45 78° ESE 08:02:42 10° NNE visible
22 Feb - 09:40:39 10° W 09:43:42 14° NW 09:46:48 10° NNW visible
22 Feb - 16:58:45 10° N 17:04:28 35° ENE 17:10:13 10° ESE daylight
22 Feb - 18:45:08 10° NW 18:50:39 32° WSW 18:56:12 10° SSW daylight
23 Feb - 06:17:24 10° SE 06:19:55 13° ESE 06:22:28 10° ENE night (unlit)
23 Feb - 07:59:42 10° SSW 08:05:28 68° WNW 08:11:25 10° NNE visible
23 Feb - 17:07:11 10° NNW 17:13:20 52° ENE 17:19:32 10° SE daylight
23 Feb - 18:54:41 10° WNW 18:59:12 21° WSW 19:03:45 10° SSW daylight
24 Feb - 06:24:06 10° SSE 06:28:24 22° ESE 06:32:46 10° ENE night (unlit)
24 Feb - 08:08:46 10° SW 08:14:17 44° WNW 08:19:58 10° NNE visible
24 Feb - 15:32:37 10° NNE 15:34:53 12° NE 15:37:10 10° ENE daylight
24 Feb - 17:15:48 10° NNW 17:22:08 79° ENE 17:28:31 10° SSE daylight
24 Feb - 19:05:08 10° WNW 19:07:41 13° WSW 19:10:15 10° SW daylight
25 Feb - 06:31:45 10° S 06:36:56 35° ESE 06:42:13 10° NE night (unlit)
25 Feb - 08:18:12 10° WSW 08:23:11 29° WNW 08:28:19 10° N visible
25 Feb - 15:39:52 10° N 15:44:02 18° NE 15:48:12 10° E daylight
25 Feb - 17:24:34 10° NNW 17:30:51 70° WSW 17:37:11 10° SSE daylight
26 Feb - 06:39:54 10° S 06:45:32 55° ESE 06:51:20 10° NE night (unlit)
26 Feb - 08:28:04 10° W 08:32:11 19° NW 08:36:24 10° N visible
26 Feb - 15:47:51 10° N 15:53:04 26° NE 15:58:18 10° ESE daylight
26 Feb - 17:33:32 10° NW 17:39:31 45° WSW 17:45:31 10° S daylight
27 Feb - 06:48:24 10° SSW 06:54:13 87° ESE 07:00:12 10° NNE night (unlit)
27 Feb - 08:38:41 10° WNW 08:41:17 13° NW 08:43:55 10° NNW visible
27 Feb - 15:56:09 10° N 16:02:00 39° ENE 16:07:54 10° SE daylight
27 Feb - 17:42:47 10° NW 17:48:06 29° WSW 17:53:28 10° SSW daylight
